Probability
100 100 94 94 100 100 97 100 84 65 39 23 10 3 0 0 13 16 19 45 45 39 35 29 19 19 16 19 26 26 39 52 52 61 68 68 65 55 52 52 52 65 68
100 100 100 97 100 100 94 94 84 74 58 58 32 13 0 3 6 13 13 13 23 23 23 16 13 13 13 19 23 26 26 23 29 48 48 61 58 65 65 52 52 52 48
100 97 97 100 97 100 100 84 61 68 55 35 29 10 13 16 6 3 6 3 0 3 3 3 3 3 6 13 10 13 10 19 19 26 29 29 29 29 35 29 32 45 42
94 97 97 84 84 81 74 81 58 45 39 29 23 19 16 16 6 6 3 3 0 0 0 0 0 0 0 0 0 0 0 10 3 3 3 3 10 6 6 6 6 6 19
74 74 74 77 71 55 48 23 23 29 19 10 10 13 0 6 3 0 0 0 0 0 0 0 0 0 0 0 0 0 0 0 0 0 0 0 0 0 0 0 0 0 0
55 58 52 42 39 35 26 16 10 6 3 6 0 0 0 0 0 0 0 0 0 0 0 0 0 0 0 0 0 0 0 0 0 0 0 0 0 0 0 0 0 0 0
13 26 26 29 29 19 16 0 3 0 0 0 0 0 0 0 0 0 0 0 0 0 0 0 0 0 0 0 0 0 0 0 0 0 0 0 0 0 0 0 0 0 0
10 6 10 13 10 3 0 0 0 0 0 0 0 0 0 0 0 0 0 0 0 0 0 0 0 0 0 0 0 0 0 0 0 0 0 0 0 0 0 0 0 0 0
3 3 3 3 3 0 0 0 0 0 0 0 0 0 0 0 0 0 0 0 0 0 0 0 0 0 0 0 0 0 0 0 0 0 0 0 0 0 0 0 0 0 0
0 0 0 0 0 0 0 0 0 0 0 0 0 0 0 0 0 0 0 0 0 0 0 0 0 0 0 0 0 0 0 0 0 0 0 0 0 0 0 0 0 0 0
0 0 0 0 0 0 0 0 0 0 0 0 0 0 0 0 0 0 0 0 0 0 0 0 0 0 0 0 0 0 0 0 0 0 0 0 0 0 0 0 0 0 0
0 0 0 0 0 0 0 0 0 0 0 0 0 0 0 0 0 0 0 0 0 0 0 0 0 0 0 0 0 0 0 0 0 0 0 0 0 0 0 0 0 0 0
0 0 0 0 0 0 0 0 0 0 0 0 0 0 0 0 0 0 0 0 0 0 0 0 0 0 0 0 0 0 0 0 0 0 0 0 0 0 0 0 0 0 0
0 0 0 0 0 0 0 0 0 0 0 0 0 0 0 0 0 0 0 0 0 0 0 0 0 0 0 0 0 0 0 0 0 0 0 0 0 0 0 0 0 0 0
0 0 0 0 0 0 0 0 0 0 0 0 0 0 0 0 0 0 0 0 0 0 0 0 0 0 0 0 0 0 0 0 0 0 0 0 0 0 0 0 0 0 0
0 0 0 0 0 0 0 0 0 0 0 0 0 0 0 0 0 0 0 0 0 0 0 0 0 0 0 0 0 0 0 0 0 0 0 0 0 0 0 0 0 0 0
0 0 0 0 0 0 0 0 0 0 0 0 0 0 0 0 0 0 0 0 0 0 0 0 0 0 0 0 0 0 0 0 0 0 0 0 0 0 0 0 0 0 0
0 0 0 0 0 0 0 0 0 0 0 0 0 0 0 0 0 0 0 0 0 0 0 0 0 0 0 0 0 0 0 0 0 0 0 0 0 0 0 0 0 0 0
0 0 0 0 0 0 0 0 0 0 0 0 0 0 0 0 0 0 0 0 0 0 0 0 0 0 0 0 0 0 0 0 0 0 0 0 0 0 0 0 0 0 0
0 0 0 0 0 0 0 0 0 0 0 0 0 0 0 0 0 0 0 0 0 0 0 0 0 0 0 0 0 0 0 0 0 0 0 0 0 0 0 0 0 0 0
0 0 0 0 0 0 0 0 0 0 0 0 0 0 0 0 0 0 0 0 0 0 0 0 0 0 0 0 0 0 0 0 0 0 0 0 0 0 0 0 0 0 0
0 0 0 0 0 0 0 0 0 0 0 0 0 0 0 0 0 0 0 0 0 0 0 0 0 0 0 0 0 0 0 0 0 0 0 0 0 0 0 0 0 0 0
0 0 0 0 0 0 0 0 0 0 0 0 0 0 0 0 0 0 0 0 0 0 0 0 0 0 0 0 0 0 0 0 0 0 0 0 0 0 0 0 0 0 0
0 0 0 0 0 0 0 0 0 0 0 0 0 0 0 0 0 0 0 0 0 0 0 0 0 0 0 0 0 0 0 0 0 0 0 0 0 0 0 0 0 0 0
0 0 0 0 0 0 0 0 0 0 0 0 0 0 0 0 0 0 0 0 0 0 0 0 0 0 0 0 0 0 0 0 0 0 0 0 0 0 0 0 0 0 0
0 0 0 0 0 0 0 0 0 0 0 0 0 0 0 0 0 0 0 0 0 0 0 0 0 0 0 0 0 0 0 0 0 0 0 0 0 0 0 0 0 0 0
Height
5878 5877 5874 5872 5871 5871 5870 5869 5869 5869 5868 5868 5868 5868 5867 5865 5865 5867 5867 5866 5865 5865 5864 5864 5863 5863 5862 5861 5861 5860 5859 5859 5858 5857 5857 5856 5856 5855 5855 5855 5855 5855 5855
5874 5873 5872 5869 5868 5867 5865 5863 5862 5863 5863 5863 5863 5863 5862 5861 5860 5861 5862 5861 5860 5860 5859 5858 5858 5857 5856 5855 5854 5853 5852 5851 5851 5850 5849 5848 5847 5846 5846 5846 5846 5846 5846
5870 5868 5866 5864 5863 5861 5860 5859 5857 5856 5856 5856 5857 5857 5856 5856 5855 5854 5854 5854 5855 5855 5853 5852 5851 5850 5849 5848 5847 5846 5845 5844 5843 5841 5840 5839 5838 5837 5836 5836 5835 5835 5835
5865 5863 5860 5858 5856 5855 5853 5851 5851 5849 5849 5849 5850 5849 5850 5850 5849 5848 5847 5846 5847 5848 5847 5846 5844 5843 5842 5841 5839 5838 5837 5835 5833 5832 5831 5829 5827 5826 5825 5824 5824 5823 5823
5860 5858 5855 5852 5849 5847 5846 5845 5843 5842 5842 5842 5842 5842 5842 5843 5842 5841 5841 5839 5838 5838 5839 5839 5837 5835 5834 5832 5831 5829 5827 5825 5823 5821 5819 5817 5816 5814 5813 5812 5811 5810 5810
5856 5854 5851 5847 5844 5841 5839 5838 5836 5835 5835 5835 5834 5835 5835 5835 5835 5835 5834 5833 5832 5831 5829 5829 5828 5827 5826 5823 5821 5819 5816 5814 5812 5809 5807 5805 5802 5800 5799 5797 5796 5795 5795
5851 5849 5846 5842 5839 5835 5833 5831 5830 5829 5828 5828 5827 5828 5828 5828 5827 5827 5826 5825 5824 5824 5822 5820 5818 5817 5815 5813 5811 5808 5805 5802 5799 5795 5792 5789 5787 5785 5783 5781 5779 5778 5777
5846 5844 5842 5838 5834 5830 5827 5826 5824 5823 5822 5821 5821 5820 5821 5822 5820 5819 5818 5817 5816 5814 5813 5811 5808 5806 5803 5800 5798 5795 5792 5789 5784 5780 5776 5773 5770 5767 5765 5763 5761 5759 5758
5842 5839 5837 5834 5830 5827 5824 5821 5819 5817 5816 5815 5815 5815 5814 5814 5813 5812 5810 5808 5806 5805 5802 5799 5796 5793 5790 5786 5782 5779 5776 5773 5768 5763 5758 5754 5750 5747 5744 5742 5740 5738 5737
5836 5834 5831 5828 5825 5822 5819 5816 5814 5812 5810 5809 5808 5807 5806 5805 5803 5802 5801 5798 5796 5793 5791 5787 5784 5780 5775 5770 5766 5762 5758 5754 5750 5744 5739 5734 5730 5726 5722 5720 5717 5715 5715
5829 5827 5825 5822 5820 5817 5814 5811 5808 5806 5803 5802 5801 5799 5797 5795 5793 5791 5789 5786 5783 5779 5776 5772 5769 5764 5759 5754 5749 5745 5740 5735 5729 5724 5718 5713 5708 5704 5700 5696 5694 5692 5691
5822 5820 5818 5815 5813 5810 5807 5804 5801 5799 5796 5794 5792 5790 5788 5785 5782 5779 5777 5773 5769 5765 5760 5755 5750 5745 5740 5735 5729 5724 5720 5714 5708 5702 5696 5691 5686 5681 5677 5673 5670 5668 5667
5814 5812 5810 5807 5805 5802 5799 5796 5794 5791 5788 5785 5783 5780 5776 5773 5770 5766 5763 5760 5756 5751 5745 5739 5732 5727 5721 5714 5708 5703 5698 5692 5686 5680 5674 5668 5663 5658 5654 5650 5646 5645 5644
5805 5803 5801 5799 5796 5793 5790 5787 5785 5782 5778 5775 5772 5768 5765 5761 5757 5752 5748 5744 5741 5737 5730 5723 5715 5709 5703 5696 5689 5683 5677 5670 5664 5657 5651 5645 5640 5635 5630 5626 5622 5620 5620
5795 5793 5791 5788 5786 5783 5780 5777 5774 5771 5767 5764 5760 5757 5752 5747 5743 5738 5733 5728 5724 5721 5716 5707 5699 5692 5685 5678 5670 5663 5657 5650 5643 5636 5630 5624 5618 5613 5609 5604 5601 5598 5597
5785 5783 5780 5778 5775 5772 5769 5766 5763 5759 5756 5752 5748 5743 5739 5734 5729 5723 5718 5712 5706 5702 5698 5691 5682 5674 5667 5660 5652 5645 5638 5632 5625 5618 5612 5606 5600 5595 5590 5586 5582 5580 5579
5775 5772 5769 5766 5763 5760 5757 5753 5750 5747 5743 5739 5734 5730 5725 5720 5714 5708 5702 5696 5690 5684 5680 5675 5665 5657 5649 5642 5635 5627 5621 5615 5609 5603 5596 5590 5585 5580 5575 5571 5568 5566 5564
5764 5761 5757 5754 5751 5748 5744 5740 5737 5733 5729 5725 5720 5715 5710 5705 5699 5694 5688 5681 5675 5668 5662 5658 5650 5641 5633 5625 5618 5612 5605 5600 5594 5589 5583 5578 5573 5568 5564 5560 5557 5554 5553
5752 5748 5745 5741 5738 5734 5731 5727 5723 5718 5714 5710 5705 5700 5695 5690 5685 5679 5673 5667 5660 5653 5646 5640 5634 5625 5618 5610 5604 5598 5592 5587 5581 5576 5572 5567 5562 5558 5554 5550 5547 5545 5544
5739 5735 5732 5728 5724 5721 5716 5712 5708 5704 5700 5695 5691 5686 5681 5676 5671 5665 5659 5653 5646 5639 5632 5625 5619 5612 5604 5597 5592 5587 5582 5576 5571 5565 5560 5556 5552 5548 5544 5541 5538 5536 5535
5725 5722 5718 5714 5711 5707 5702 5698 5694 5690 5686 5681 5677 5672 5668 5663 5658 5651 5645 5639 5632 5626 5619 5612 5606 5600 5594 5588 5582 5577 5571 5566 5561 5555 5551 5546 5542 5539 5535 5532 5529 5527 5526
5712 5708 5705 5701 5697 5692 5688 5684 5680 5676 5672 5668 5664 5659 5655 5650 5645 5639 5632 5626 5620 5614 5608 5602 5596 5590 5585 5579 5573 5567 5562 5557 5553 5548 5543 5538 5534 5530 5526 5523 5521 5519 5517
5698 5694 5691 5687 5682 5677 5674 5670 5666 5662 5658 5655 5651 5646 5642 5637 5632 5627 5621 5615 5609 5603 5598 5593 5588 5583 5577 5571 5566 5560 5554 5549 5544 5540 5536 5532 5527 5523 5519 5515 5513 5510 5509
5684 5681 5677 5673 5668 5663 5659 5656 5652 5648 5645 5641 5637 5633 5629 5625 5620 5616 5611 5605 5600 5595 5591 5586 5581 5575 5570 5564 5558 5553 5548 5544 5539 5533 5529 5526 5521 5517 5513 5509 5505 5503 5501
5670 5667 5663 5658 5654 5650 5645 5642 5638 5635 5631 5628 5625 5621 5618 5614 5610 5606 5602 5598 5594 5589 5585 5580 5575 5569 5564 5558 5553 5548 5543 5538 5534 5529 5524 5520 5515 5511 5507 5502 5499 5496 5493
5656 5652 5648 5644 5640 5636 5632 5628 5624 5621 5618 5615 5613 5610 5607 5604 5601 5598 5595 5592 5589 5585 5580 5575 5570 5565 5560 5554 5549 5543 5538 5534 5530 5525 5520 5515 5510 5505 5502 5497 5493 5490 5487
Wind_Speed
19 19 20 19 20 20 20 21 21 21 21 21 21 21 22 24 23 20 21 22 22 22 22 23 23 24 25 26 27 27 28 29 30 31 32 33 34 35 36 36 37 37 37
25 25 25 25 25 23 23 24 23 23 25 25 25 25 26 26 26 26 24 25 26 26 26 26 27 27 28 29 30 31 32 32 33 34 35 36 37 38 39 40 41 41 42
30 31 30 31 30 29 28 28 27 29 29 30 29 29 29 30 30 30 30 29 29 29 30 30 30 30 31 32 32 33 34 35 36 37 38 40 41 42 43 43 44 45 45
34 34 34 34 34 33 33 33 31 33 33 33 33 33 33 33 32 33 33 33 31 30 31 31 32 33 33 34 34 35 36 38 39 40 42 44 45 46 47 47 48 48 49
37 37 34 34 35 35 35 34 34 35 36 36 36 35 34 34 34 33 33 33 33 32 31 31 33 34 35 36 38 39 40 41 43 45 46 48 50 51 52 53 53 54 54
37 36 35 35 33 33 33 32 33 35 36 37 37 34 32 34 34 32 32 32 32 32 33 33 33 35 37 39 41 43 45 47 48 50 52 54 55 56 58 59 59 60 60
37 34 35 34 33 32 31 30 30 30 31 33 35 33 32 33 33 31 31 31 31 33 34 36 38 39 41 43 45 48 50 52 54 56 58 60 61 62 63 64 65 66 66
37 34 33 34 33 31 29 28 27 26 28 29 29 30 31 31 30 30 31 33 34 36 37 39 42 44 46 49 51 53 55 57 60 62 64 65 67 68 69 70 71 71 71
36 34 32 32 31 30 29 28 28 27 28 29 29 30 30 30 31 34 35 35 36 39 42 44 47 50 52 55 57 59 61 62 64 66 68 70 72 73 74 75 75 75 75
37 35 32 31 31 30 29 30 28 28 29 30 32 32 33 34 36 36 37 39 41 43 46 49 52 55 58 61 63 65 66 67 69 70 72 74 75 76 77 77 77 77 77
38 35 33 32 32 31 31 31 31 31 31 31 32 33 36 37 39 41 42 45 47 50 52 55 57 60 62 65 67 68 69 70 72 73 74 75 76 76 77 77 77 77 77
38 36 35 34 34 33 33 33 34 34 34 35 36 37 39 42 45 47 48 50 53 56 59 62 64 65 67 69 70 71 71 72 73 74 75 75 76 76 77 77 76 76 75
38 38 37 36 36 36 35 35 35 36 37 39 41 42 45 47 49 51 53 54 57 59 62 65 67 69 70 72 72 73 73 74 74 74 75 75 75 75 75 75 75 74 73
40 40 38 38 38 38 38 37 38 39 41 43 44 46 48 51 53 55 57 59 61 62 65 67 68 69 70 71 72 73 73 74 75 74 73 72 71 70 70 70 70 70 70
42 42 41 41 41 41 41 41 42 43 44 46 48 50 52 54 56 58 61 63 64 65 65 66 67 68 69 69 70 71 71 71 69 68 66 65 64 63 62 61 61 62 62
45 45 45 44 44 44 44 44 45 46 48 50 51 53 55 57 59 61 62 64 65 65 64 65 66 67 67 68 68 68 66 63 61 60 59 58 57 55 54 52 52 52 53
48 48 48 48 48 47 48 48 49 50 51 53 54 56 57 58 60 61 62 62 63 63 63 62 64 65 65 65 64 62 60 57 54 51 50 48 47 46 44 43 42 42 42
51 51 51 51 51 51 51 52 53 54 55 55 56 57 58 58 59 59 60 60 60 61 61 60 61 62 61 59 58 55 52 49 46 44 42 41 40 39 38 37 36 35 34
53 53 53 53 54 54 55 55 56 56 57 57 57 57 57 57 57 58 58 58 58 58 59 59 58 57 55 53 50 47 44 42 41 40 39 38 37 36 35 34 32 31 30
54 55 55 56 56 57 57 57 58 58 57 57 56 55 55 55 55 55 55 56 56 57 56 55 52 49 47 44 42 40 39 39 38 38 37 36 35 34 33 32 31 30 30
55 56 56 57 58 58 59 58 58 57 56 55 55 55 54 54 53 53 53 54 54 53 51 48 45 41 39 38 38 38 38 36 35 35 33 32 32 31 31 30 30 29 29
55 56 57 58 58 58 58 58 57 56 55 54 53 53 52 51 50 50 51 51 50 47 44 41 37 35 35 36 36 35 34 32 30 30 29 28 28 28 28 28 28 28 28
55 56 57 57 57 57 56 55 54 54 53 52 51 50 49 49 47 47 47 46 43 41 37 34 32 33 34 33 32 30 29 28 28 26 25 24 25 26 26 25 25 26 26
54 55 55 55 54 54 53 53 52 51 50 49 48 47 46 45 44 42 41 39 37 34 32 31 32 32 31 29 28 28 27 26 25 25 24 23 24 24 24 24 23 23 24
53 53 52 52 52 51 51 51 50 49 48 46 44 43 42 40 38 36 34 32 30 28 29 30 29 28 27 27 26 26 25 24 23 23 24 24 24 24 24 23 22 21 21
50 50 50 49 49 48 48 48 47 45 43 41 40 38 36 33 31 29 26 24 23 24 25 26 26 25 26 26 25 24 23 22 22 22 23 24 23 22 21 22 22 20 19
Wind_Direction
316 310 304 294 290 286 280 275 272 271 271 269 267 265 266 268 270 268 269 271 272 273 274 275 277 277 277 277 278 279 279 279 279 278 278 277 277 276 275 274 273 272 270
322 315 310 304 296 287 281 275 270 268 269 269 267 267 267 270 273 274 272 272 274 275 276 277 278 278 279 279 280 280 281 281 281 280 279 279 278 277 276 275 274 273 271
324 319 312 311 305 293 281 275 270 268 269 269 267 267 268 270 272 275 274 272 272 273 275 276 277 278 279 280 281 281 281 281 282 282 281 280 279 278 277 276 274 272 271
322 322 317 315 313 305 294 284 273 269 269 271 271 270 269 270 271 273 274 276 274 270 271 274 276 279 280 280 281 281 281 281 281 281 281 280 279 278 277 276 275 273 271
321 325 323 319 314 312 305 294 284 276 273 273 273 272 271 270 272 274 274 275 275 274 272 271 274 277 279 281 282 283 283 282 281 281 280 279 278 277 276 275 274 272 271
320 327 328 324 319 313 308 302 292 285 280 277 277 275 272 273 274 275 274 274 275 276 278 279 279 279 280 282 282 282 283 282 282 281 279 278 277 275 274 273 272 270 269
318 325 329 330 326 319 313 309 301 291 286 283 280 278 275 277 278 276 277 276 278 281 282 283 283 282 281 281 281 281 281 281 280 279 278 277 276 275 273 272 270 269 268
321 321 322 325 327 324 319 314 312 301 295 291 286 280 281 281 281 281 282 283 284 283 282 282 281 282 282 283 282 281 280 280 279 278 278 277 276 275 274 272 271 269 267
316 316 318 320 322 321 320 318 319 309 304 299 296 293 291 286 287 287 285 283 281 280 282 283 283 283 283 283 283 283 282 281 280 279 278 277 277 276 274 273 272 270 268
308 310 313 316 318 318 318 319 318 312 309 303 298 297 295 291 288 287 285 283 282 282 281 282 283 284 284 284 284 283 283 283 281 280 278 278 277 276 275 274 272 270 269
302 305 306 310 311 311 312 315 315 313 309 303 298 298 295 293 291 290 290 289 289 287 286 286 285 285 284 284 284 284 284 283 282 281 280 279 278 277 276 274 273 271 270
299 301 301 304 305 306 308 310 310 308 305 301 298 297 294 293 291 291 290 290 289 290 290 289 288 288 288 288 287 286 286 285 284 283 282 280 279 278 276 275 273 272 270
296 298 298 299 301 303 304 305 304 303 301 300 298 295 294 292 291 290 290 289 289 290 290 290 289 290 290 290 289 289 288 287 286 284 283 282 281 279 278 276 274 272 269
294 295 295 296 297 299 300 301 300 298 297 296 295 294 292 291 291 290 290 289 289 289 290 290 290 291 291 291 290 290 289 289 288 287 286 284 283 281 280 277 275 272 269
292 292 294 294 296 297 297 297 297 296 294 294 293 292 291 291 291 290 290 290 290 290 291 291 291 291 291 291 291 291 291 290 290 289 288 287 285 284 282 279 277 273 270
290 291 292 294 294 295 295 295 295 294 293 293 292 291 291 290 290 290 290 291 291 292 292 292 292 292 292 292 292 293 293 292 291 290 290 289 288 285 283 281 279 276 272
289 290 291 292 293 293 294 294 294 294 294 293 292 291 291 291 291 291 292 293 293 294 294 294 294 294 294 294 294 294 294 293 292 292 291 291 290 288 286 284 281 278 274
288 288 289 290 291 292 293 293 294 294 294 293 293 293 293 293 293 294 294 295 295 295 296 296 295 295 296 296 296 295 295 294 294 293 292 292 291 290 288 286 283 280 276
286 287 288 289 290 292 293 294 295 295 295 295 295 295 295 295 296 296 296 296 297 297 297 298 298 297 297 297 297 297 297 296 296 295 293 293 292 290 288 286 283 280 276
285 286 288 289 290 292 294 294 295 296 296 296 296 296 297 297 297 297 298 298 298 299 299 300 300 299 299 299 300 300 300 299 298 297 296 295 293 291 288 286 283 280 276
285 286 288 291 292 293 294 294 294 295 295 296 296 297 297 298 298 298 299 299 300 301 301 302 302 302 302 302 302 303 302 302 301 299 299 297 295 293 290 287 284 281 277
287 289 291 292 293 293 293 293 294 294 294 295 296 297 298 298 299 299 300 301 302 302 303 303 304 304 305 305 306 305 306 306 305 303 303 301 300 298 295 291 286 281 276
290 291 292 292 293 293 293 293 293 294 294 295 296 297 297 298 299 301 302 303 303 303 304 306 307 308 309 309 310 311 312 312 312 309 307 305 304 302 299 296 291 286 280
291 291 292 292 292 293 293 293 294 294 294 295 296 297 298 299 301 301 302 302 303 305 307 310 312 314 316 316 317 317 317 317 316 315 314 311 308 307 306 303 299 293 285
292 292 292 293 293 293 294 294 294 295 295 295 296 297 298 299 300 300 300 301 304 306 310 314 317 319 321 323 324 324 324 324 322 320 319 318 314 311 310 307 305 299 291
294 294 294 294 294 295 295 296 295 295 295 295 295 295 296 297 297 298 300 302 306 311 315 319 322 325 328 330 330 329 329 329 328 326 325 325 323 319 316 313 310 304 297